Location: DARK SKY Beskydy - Park tmavé oblohy, www.darkskybeskydy.cz
(49.4926°N, 18.5016°E)
Time: 11:17:12
(UTC+02:00)

Vanguard 1 - Pass Details

Date: 27 February 2024
Orbit: 653 x 3825 km, 34.2° (Epoch: 12 April)

Event Time Altitude Azimuth Distance (km) Brightness Sun altitude
Rises 18:49:03 0° 224° (SW) 5,046 14.3 -14.5°
Reaches altitude 10° 18:52:08 10° 216° (SW) 4,418 13.8 -15.0°
Maximum altitude 19:03:54 39° 154° (SSE) 3,757 12.7 -16.9°
Enters shadow 19:15:29 22° 106° (ESE) 5,482 13.2 -18.7°
Drops below altitude 10° 19:22:08 10° 96° (E) 6,761 - -19.8°
Sets 19:28:19 0° 90° (E) 7,941 - -20.8°
